Карточка аэропорта UATT

Внимание!
Информация на этой странице в стадии наполнения.
Если вы не увидели какой-то информации, или заметили неточность - пожалуйста сообщите нам!
Спасибо!
Команда RU-STAFF
Название аэропортаАктобе
Название аэропорта (англ.)Aktobe
Превышение738 ft. (224.9 m.)
Координаты50°14.748', 57°12.402'
Высота перехода10000ft
Эшелон переходаFL120, QNH<733:FL130
Коды ответчика3440-3447, 3540-3547
Зона ОрВДАктобе РПИ (UATT)
Данные METARUATT 230430Z 36005MPS 330V030 CAVOK 19/08 Q1017 NOSIG RMK QFE742/0990
Проноз погоды (TAF)UATT 221700Z 2218/2318 24003MPS 9999 SCT033CB TX21/2311Z TN10/2301Z TEMPO 2221/2306 4000 -SHRA BKN020CB TEMPO 2306/2315 VRB12MPS 3100 -TSRA SQ BKN015CB BECMG 2315/2316 36008MPS
NOTAMshow/hide NOTAM
AWOS   TABLE

Информация о ВПП

ВПП Длина ВПП (м.) Покрытие Курс ВПП Частота ILS
133202Бетон135111.7
313202Бетон315111.7

Диспетчерские позиции




Спутниковое изображение